Home   Weather   Little Rock   Past weeks

Flag for USA Past Weather in Little Rock, Arkansas, USA — Yesterday and Last 2 Weeks

Now
59 °F

Passing clouds.


Feels Like: 58 °F
Forecast: 52 / 78 °F
Wind: 7 mph from Southeast

Location: Adams Field

Current Time: Apr 27, 2017 at 11:30:19 pm

Latest Report: Apr 27, 2017 at 10:53 pm


Visibility: 10 mi

Pressure: 29.79 "Hg

Humidity: 87%

Dew Point: 55 °F

Location of Little RockLocation

Past Weather in Little Rock — Graph

°F

Little Rock Temperature Yesterday

Maximum temperature yesterday: 73 °F (at 11:53 am)
Minimum temperature yesterday: 52 °F (at 11:53 pm)
Average temperature yesterday: 64 °F

High & Low Weather Summary for the Past Weeks

 TemperatureHumidityPressure
High82 °F (Apr 14, 2:53 pm)100% (Apr 13, 12:53 am)30.26 "Hg (Apr 13, 12:53 am)
Low45 °F (Apr 27, 5:53 am)25% (Apr 24, 11:53 am)29.45 "Hg (Apr 26, 4:29 pm)
Average66 °F80%29.95 "Hg
* Reported Apr 12 9:53 pm — Apr 27 9:53 pm, Little Rock, Weather by CustomWeather, © 2017

Note: Actual official high and low records may vary slightly from our data, if they occured in-between our weather recording intervals... More about our weather records

Advertising

Little Rock Weather History for the Previous 24 Hours

Scroll right to see more
 ConditionsComfort  
Time TempWeatherWind HumidityBarometerVisibility
9:53 pm
Thu, Apr 27
58 °FPassing clouds.5 mph87%29.77 "Hg10 mi
8:53 pm60 °FPassing clouds.6 mph78%29.75 "Hg10 mi
7:53 pm62 °FPassing clouds.6 mph70%29.75 "Hg10 mi
6:53 pm66 °FScattered clouds.16 mph59%29.75 "Hg10 mi
5:53 pm67 °FScattered clouds.10 mph61%29.76 "Hg10 mi
4:53 pm68 °FScattered clouds.7 mph59%29.79 "Hg10 mi
3:53 pm67 °FScattered clouds.7 mph59%29.79 "Hg10 mi
2:53 pm66 °FScattered clouds.8 mph59%29.83 "Hg10 mi
1:53 pm64 °FScattered clouds.9 mph58%29.85 "Hg10 mi
12:53 pm62 °FScattered clouds.7 mph62%29.84 "Hg10 mi
11:53 am60 °FScattered clouds.5 mph60%29.86 "Hg10 mi
10:53 am58 °FScattered clouds.No wind65%29.87 "Hg10 mi
9:53 am54 °FScattered clouds.No wind69%29.86 "Hg10 mi
8:53 am53 °FScattered clouds.6 mph77%29.84 "Hg10 mi
7:53 am51 °FScattered clouds.5 mph86%29.82 "Hg10 mi
6:53 am45 °FPartly sunny.5 mph100%29.80 "Hg10 mi
5:53 am45 °FClear.7 mph100%29.79 "Hg10 mi
4:53 am46 °FClear.7 mph96%29.76 "Hg10 mi
3:53 am47 °FPassing clouds.6 mph97%29.74 "Hg10 mi
2:53 am49 °FClear.8 mph90%29.72 "Hg10 mi
2:33 am49 °FPassing clouds.9 mph90%29.72 "Hg10 mi
1:53 am51 °FOvercast.8 mph86%29.72 "Hg10 mi
12:53 am51 °FOvercast.15 mph89%29.72 "Hg10 mi
11:53 pm
Wed, Apr 26
52 °FMostly cloudy.13 mph89%29.69 "Hg10 mi
11:05 pm53 °FOvercast.14 mph89%29.67 "Hg10 mi
Weather by CustomWeather, © 2017

See weather overviewHow to use our weather pages